Wind_Speed
27 27 28 30 31 32 35 36 37 38 39 40 41 40 39 39 39 39 38 39 39 39 40 40 41 43 43 43 42 42 42 42 42 42 41 41 40 40 40 41 41 42 43 43
26 27 29 31 30 31 34 36 37 37 38 38 39 40 40 39 39 39 39 38 38 39 40 41 41 42 43 43 43 42 42 42 42 43 43 43 42 42 42 41 40 41 41 42
23 24 27 27 28 30 32 33 35 37 37 37 37 38 38 39 39 38 38 39 39 39 39 40 41 42 42 43 43 43 42 42 43 43 43 43 43 43 42 41 41 40 41 41
21 21 23 24 25 27 29 31 33 35 36 37 38 37 37 38 39 39 39 39 39 39 39 39 40 41 42 42 43 43 43 43 43 43 43 43 43 43 42 41 41 41 41 41
18 19 21 23 24 26 28 30 31 33 35 36 38 37 38 38 39 39 38 39 40 40 39 40 40 40 41 41 42 42 43 43 43 43 43 43 43 43 42 42 42 42 42 41
17 18 19 20 21 24 27 29 30 31 32 34 35 36 36 37 38 38 38 38 39 40 40 40 40 40 40 41 41 41 42 43 44 44 43 43 43 43 42 42 42 42 41 41
17 17 17 18 19 21 24 25 27 29 30 32 34 34 34 35 36 38 38 38 38 39 40 40 40 40 41 41 41 42 42 42 43 44 43 43 43 42 42 42 42 42 41 41
16 17 17 17 19 19 20 21 24 27 29 30 32 33 33 34 34 35 36 36 37 38 39 39 40 40 40 40 41 41 41 41 42 43 43 43 43 43 43 42 42 41 41 41
17 18 17 17 18 19 20 20 22 24 26 27 29 31 31 32 33 33 34 34 35 36 37 37 38 39 40 40 40 40 40 40 40 40 41 41 42 42 42 42 41 41 40 40
16 17 18 18 18 19 20 20 20 21 24 25 26 27 29 30 31 31 32 32 33 34 34 35 35 35 37 38 39 39 38 38 38 38 38 39 40 41 41 41 40 40 40 40
17 17 17 18 19 20 20 20 20 21 23 24 25 26 27 28 29 30 30 30 31 32 33 33 33 33 34 36 37 38 38 37 37 37 37 37 37 39 39 39 40 40 40 40
17 17 17 17 18 20 20 20 20 21 22 24 24 24 25 26 27 27 28 29 30 30 31 32 33 33 33 33 34 35 35 36 36 36 37 37 36 37 38 39 39 40 41 41
17 17 18 17 17 18 19 20 20 20 21 22 24 25 25 25 25 26 27 28 29 30 31 32 33 33 33 33 33 33 34 34 35 36 36 36 36 36 37 38 39 39 40 40
17 17 17 17 17 17 17 18 19 20 20 21 23 24 23 23 24 25 26 26 27 29 30 31 32 33 34 34 34 34 34 35 34 34 34 35 35 36 36 36 37 38 38 39
15 15 16 16 16 16 16 16 18 19 19 19 20 22 22 22 23 25 26 26 27 28 29 30 31 32 34 34 35 35 35 35 35 34 34 34 35 36 36 36 36 36 37 38
15 15 16 16 16 16 16 15 16 17 18 19 20 21 22 23 23 25 26 27 27 27 28 28 29 30 32 33 33 34 34 34 34 34 34 34 35 35 35 35 35 35 35 36
16 16 16 16 16 16 16 16 16 16 17 19 20 21 22 23 23 25 26 26 27 27 28 28 29 30 30 31 32 32 33 33 33 33 33 34 34 34 34 34 34 35 35 35
16 16 16 16 16 16 17 17 17 17 17 18 19 21 23 23 23 24 25 25 26 27 27 28 28 29 29 30 31 31 31 32 32 32 32 32 32 32 33 33 34 34 34 34
17 17 17 17 17 17 17 18 18 18 19 19 20 21 22 23 24 24 25 26 26 26 27 27 27 28 28 28 30 30 30 31 31 31 31 32 31 32 32 32 32 33 32 32
18 18 18 18 18 18 18 18 19 19 19 20 20 21 22 22 23 24 25 25 25 25 25 26 26 27 27 28 29 29 30 31 31 31 31 31 31 31 31 31 31 31 31 31
18 18 18 18 19 18 18 19 19 20 20 20 20 21 22 22 23 23 23 23 24 24 24 25 25 26 27 28 28 29 29 29 29 30 31 31 31 30 30 30 30 30 30 31
19 19 19 19 19 19 19 19 19 19 19 19 20 20 21 21 21 22 22 22 22 23 24 24 25 25 26 26 27 27 27 27 27 28 29 29 29 29 29 29 30 30 30 30
20 20 20 20 20 20 20 20 20 20 19 19 19 20 20 20 20 20 21 21 22 23 23 24 24 24 25 25 25 25 25 25 26 26 27 28 28 28 29 29 29 29 28 29
21 21 20 20 20 20 20 20 20 20 19 19 19 19 19 19 19 20 20 21 22 22 22 22 23 23 24 24 24 25 25 25 25 25 25 26 26 27 27 27 27 27 27 27
21 21 21 20 20 20 20 19 19 18 18 17 17 17 17 17 17 18 19 20 20 21 21 21 22 22 22 22 23 23 23 24 24 24 24 24 25 25 26 26 27 27 27 26
21 21 21 21 20 20 19 18 18 17 16 16 16 16 16 16 17 17 18 18 19 20 21 21 21 22 22 22 22 23 23 23 23 24 24 23 23 24 24 25 25 25 26 26
22 21 21 20 20 19 18 17 17 17 16 16 16 16 15 16 16 17 17 18 18 19 20 20 20 21 21 21 21 22 22 23 23 23 23 23 23 22 22 23 23 23 24 24
Wind_Direction
259 255 253 249 246 244 241 240 240 239 241 243 244 245 246 245 244 245 246 246 245 245 244 244 244 245 246 247 247 247 246 247 248 249 250 252 253 254 256 257 258 259 259 259
259 257 255 252 248 245 245 243 242 242 242 243 244 244 244 244 243 243 243 243 242 242 242 243 244 245 245 246 247 247 247 248 248 249 250 251 253 254 256 258 259 260 260 259
263 260 256 253 249 248 246 245 244 243 243 243 243 243 243 242 243 243 243 243 242 241 242 243 244 245 245 246 246 247 248 249 249 250 251 252 253 255 257 258 259 261 262 261
267 263 257 252 250 249 246 244 243 244 244 244 245 243 242 243 244 244 244 243 243 243 243 244 244 245 245 245 247 248 249 250 251 252 253 253 255 256 258 259 260 261 261 261
267 266 261 256 252 251 248 245 244 245 244 242 244 245 244 243 243 244 244 244 244 243 243 244 244 244 245 247 248 249 250 251 252 253 254 255 256 257 258 259 261 261 260 260
271 270 262 258 256 254 251 248 246 246 245 243 244 246 247 246 246 246 246 245 246 245 245 245 244 245 246 248 250 250 250 251 251 252 254 255 257 257 258 259 260 261 261 262
273 271 266 261 260 256 254 252 251 250 248 246 245 246 247 248 247 246 247 247 247 247 247 246 246 246 247 248 250 250 251 251 251 252 254 255 256 257 258 259 260 261 261 261
276 272 268 265 266 261 260 258 256 254 252 250 248 248 249 249 249 247 246 245 245 245 246 247 248 248 248 249 249 250 251 252 252 253 255 256 256 257 257 258 260 260 259 259
278 276 275 272 271 270 266 263 259 256 254 253 250 249 249 249 248 246 244 244 245 245 246 247 248 248 248 248 249 250 250 252 254 255 256 256 256 256 257 257 258 258 257 257
283 279 277 274 273 273 270 265 261 258 255 252 250 248 248 248 247 246 245 244 245 245 245 246 247 247 248 249 249 249 250 251 253 255 256 256 256 255 255 256 256 257 258 258
285 283 279 276 275 273 272 267 262 259 256 254 253 251 250 248 247 247 246 246 246 246 246 247 247 247 248 249 249 250 251 252 253 254 256 257 256 255 255 255 256 257 258 259
287 285 282 279 276 273 270 268 264 261 258 256 254 251 249 248 248 249 250 247 247 247 247 248 248 247 248 249 250 252 252 253 254 256 257 258 258 258 258 258 258 259 259 259
289 288 286 284 280 275 271 267 264 263 261 257 254 251 249 249 249 248 249 249 249 250 251 250 250 249 249 250 251 253 254 256 257 257 258 259 259 260 261 261 260 260 259 259
291 290 290 290 289 283 276 270 265 262 261 258 254 251 250 249 248 248 249 250 251 252 253 252 252 252 252 253 254 255 257 257 258 258 258 259 259 259 260 262 261 260 260 260
296 294 294 294 292 289 283 277 270 265 262 261 259 255 253 252 252 252 252 253 254 255 255 253 253 253 253 254 255 256 257 258 257 257 257 259 259 259 260 261 261 262 262 262
296 294 294 293 292 290 288 284 277 269 264 260 259 257 255 256 256 256 256 256 256 257 257 257 256 255 254 254 254 255 255 257 257 257 257 258 260 260 260 261 262 263 263 264
298 296 295 295 292 289 287 284 280 275 269 264 261 259 258 258 257 257 257 257 256 256 257 257 256 255 254 254 255 255 255 255 255 256 258 259 260 260 260 261 262 263 264 264
301 299 299 297 293 289 286 284 282 279 276 271 267 264 261 259 258 258 258 259 258 257 257 257 257 256 255 256 256 255 255 255 255 256 258 258 259 259 260 261 261 263 263 263
305 301 299 298 296 291 289 288 285 281 277 275 273 270 267 264 262 261 261 260 259 258 258 258 257 256 256 256 257 256 256 255 255 256 257 258 259 259 260 260 261 262 262 262
306 304 300 297 296 294 291 290 287 283 279 277 275 272 268 266 263 262 262 261 259 259 259 259 259 258 258 258 258 258 257 255 255 256 256 257 258 259 259 260 261 261 261 263
307 306 303 301 298 297 295 293 290 287 284 280 276 273 270 268 266 265 263 260 258 258 259 259 259 259 259 259 259 258 257 257 256 256 257 257 257 258 259 260 260 260 262 263
306 306 305 303 300 299 297 295 293 290 286 282 278 275 272 270 269 266 263 260 258 258 259 260 260 260 260 260 259 258 257 257 256 256 257 257 257 257 258 259 260 261 263 264
305 305 304 304 302 301 299 297 294 292 289 285 281 277 274 272 269 266 264 263 262 261 261 261 261 260 259 259 259 258 257 257 257 257 257 258 257 257 258 260 261 262 264 264
307 306 306 305 304 302 301 300 299 295 292 289 285 280 276 273 271 269 266 264 263 262 261 261 262 261 260 259 259 258 258 258 259 259 259 259 259 259 259 260 261 261 263 264
307 307 307 306 305 303 301 301 301 299 296 293 291 287 282 278 276 273 270 267 264 263 262 261 262 262 261 260 260 260 259 259 260 260 261 261 260 260 260 261 261 261 262 263
307 307 307 307 306 305 304 302 301 299 296 294 292 290 286 282 279 277 275 272 269 266 264 263 263 263 263 262 261 261 260 260 260 260 261 261 261 261 262 262 261 261 262 263
307 307 306 306 306 306 305 303 301 300 299 297 295 293 290 286 284 283 281 277 273 269 265 263 263 263 263 263 263 263 262 261 260 261 261 261 261 261 261 261 261 262 263 264
Height
5499 5500 5502 5505 5508 5511 5514 5517 5521 5525 5528 5532 5535 5539 5542 5546 5550 5553 5557 5561 5565 5569 5573 5577 5581 5584 5588 5591 5595 5598 5601 5605 5608 5611 5613 5615 5617 5620 5621 5623 5625 5627 5628 5630
5492 5493 5494 5496 5499 5502 5505 5508 5512 5515 5518 5522 5525 5529 5532 5535 5539 5543 5547 5551 5555 5559 5563 5566 5570 5573 5577 5580 5584 5587 5591 5594 5597 5600 5602 5605 5607 5609 5611 5612 5614 5615 5617 5618
5484 5485 5485 5489 5491 5494 5496 5499 5503 5505 5509 5513 5516 5519 5522 5525 5529 5533 5537 5541 5544 5548 5552 5556 5559 5563 5566 5569 5573 5576 5579 5583 5586 5589 5591 5594 5596 5598 5600 5601 5603 5604 5606 5607
5477 5478 5479 5483 5484 5486 5488 5491 5493 5496 5499 5503 5506 5509 5512 5516 5519 5523 5527 5531 5534 5538 5542 5545 5549 5552 5555 5559 5562 5565 5568 5572 5575 5578 5580 5583 5585 5587 5589 5591 5592 5593 5595 5596
5471 5472 5472 5476 5477 5478 5479 5482 5485 5487 5490 5493 5496 5499 5502 5506 5509 5512 5516 5520 5524 5527 5531 5535 5538 5541 5545 5548 5551 5554 5557 5560 5563 5566 5569 5571 5573 5575 5577 5579 5581 5582 5583 5584
5466 5466 5467 5469 5470 5470 5473 5474 5477 5479 5481 5484 5486 5490 5494 5496 5498 5502 5505 5509 5513 5517 5520 5524 5527 5531 5534 5537 5540 5543 5546 5549 5552 5554 5557 5559 5561 5564 5565 5567 5569 5570 5571 5573
5461 5460 5461 5464 5464 5465 5467 5468 5470 5470 5472 5475 5477 5480 5484 5485 5488 5492 5495 5499 5502 5506 5509 5513 5516 5520 5523 5526 5529 5532 5534 5537 5540 5542 5545 5547 5550 5552 5554 5556 5557 5559 5560 5561
5457 5457 5459 5459 5459 5459 5459 5460 5461 5463 5464 5466 5469 5471 5474 5476 5479 5482 5485 5488 5492 5495 5499 5502 5505 5509 5512 5515 5518 5521 5523 5526 5528 5531 5533 5535 5538 5540 5542 5544 5545 5547 5548 5550
5453 5454 5453 5453 5453 5453 5453 5453 5454 5455 5457 5458 5461 5463 5465 5468 5470 5473 5476 5479 5482 5485 5489 5492 5495 5498 5501 5504 5507 5510 5512 5515 5517 5519 5521 5523 5525 5528 5530 5532 5534 5535 5537 5539
5448 5448 5448 5448 5448 5448 5447 5448 5448 5449 5450 5452 5453 5455 5457 5459 5462 5464 5467 5470 5473 5476 5479 5482 5485 5488 5491 5493 5496 5499 5501 5504 5506 5508 5510 5511 5513 5515 5517 5520 5522 5523 5525 5527
5444 5444 5443 5443 5442 5442 5442 5442 5442 5442 5443 5444 5446 5448 5450 5452 5454 5457 5459 5462 5465 5467 5470 5473 5476 5478 5481 5483 5486 5488 5491 5493 5495 5497 5499 5500 5502 5504 5506 5508 5509 5511 5513 5515
5438 5438 5437 5437 5436 5436 5436 5435 5435 5436 5437 5438 5439 5441 5442 5445 5447 5449 5451 5454 5457 5459 5462 5464 5467 5469 5471 5474 5476 5478 5480 5483 5485 5486 5488 5490 5491 5493 5494 5496 5497 5499 5501 5503
5434 5433 5432 5431 5430 5430 5429 5429 5429 5429 5430 5431 5432 5434 5436 5438 5439 5442 5444 5446 5449 5451 5453 5455 5457 5460 5462 5464 5466 5469 5471 5472 5474 5476 5478 5479 5480 5482 5483 5485 5486 5487 5489 5490
5430 5429 5428 5426 5425 5424 5423 5423 5423 5423 5424 5424 5426 5427 5429 5431 5433 5434 5436 5438 5440 5442 5444 5446 5448 5450 5452 5455 5457 5459 5460 5462 5464 5466 5467 5469 5470 5472 5473 5474 5475 5476 5478 5479
5426 5424 5423 5421 5420 5419 5418 5417 5417 5417 5418 5419 5420 5421 5423 5424 5426 5427 5429 5431 5433 5434 5436 5437 5439 5441 5443 5445 5447 5449 5450 5452 5453 5455 5457 5459 5460 5461 5462 5464 5465 5466 5467 5468
5422 5420 5419 5417 5416 5415 5414 5413 5412 5412 5412 5413 5414 5415 5416 5418 5419 5420 5422 5423 5425 5426 5428 5429 5430 5431 5433 5435 5436 5438 5440 5441 5443 5445 5447 5448 5450 5451 5452 5454 5455 5456 5457 5458
5418 5416 5415 5413 5411 5410 5409 5408 5407 5407 5407 5407 5408 5409 5410 5411 5412 5413 5414 5415 5417 5418 5419 5420 5421 5422 5424 5425 5427 5428 5430 5432 5433 5435 5437 5438 5439 5441 5442 5443 5445 5446 5446 5447
5414 5412 5410 5408 5406 5405 5404 5403 5402 5402 5402 5402 5402 5402 5403 5404 5405 5405 5406 5407 5409 5410 5411 5412 5413 5414 5415 5416 5418 5419 5420 5422 5423 5425 5427 5428 5429 5431 5432 5433 5434 5435 5436 5437
5409 5408 5406 5404 5402 5401 5399 5398 5397 5396 5396 5396 5396 5396 5396 5396 5397 5397 5398 5399 5400 5401 5402 5403 5404 5405 5406 5407 5408 5409 5411 5412 5414 5415 5417 5418 5420 5421 5422 5423 5424 5425 5426 5427
5405 5403 5401 5399 5398 5396 5395 5393 5392 5391 5390 5389 5389 5389 5389 5389 5389 5390 5390 5391 5392 5393 5394 5395 5396 5397 5398 5398 5399 5401 5402 5403 5404 5406 5407 5408 5410 5411 5412 5413 5414 5415 5416 5417
5401 5399 5397 5395 5393 5391 5390 5388 5387 5385 5384 5383 5383 5382 5382 5382 5382 5382 5383 5384 5384 5385 5386 5387 5387 5388 5389 5390 5391 5392 5393 5394 5395 5396 5397 5399 5400 5401 5402 5403 5404 5405 5406 5407
5397 5395 5393 5390 5388 5386 5384 5383 5381 5379 5378 5377 5376 5375 5375 5375 5375 5375 5375 5376 5377 5377 5378 5378 5379 5380 5380 5381 5382 5383 5384 5385 5386 5387 5388 5389 5390 5392 5393 5394 5395 5396 5397 5397
5392 5390 5388 5385 5383 5381 5379 5377 5375 5373 5372 5370 5369 5369 5368 5368 5368 5368 5368 5369 5369 5369 5370 5370 5371 5371 5372 5373 5374 5374 5375 5376 5377 5378 5379 5380 5381 5382 5383 5385 5386 5386 5387 5388
5387 5385 5382 5380 5377 5375 5373 5371 5369 5367 5366 5364 5363 5362 5362 5362 5361 5361 5361 5361 5361 5362 5362 5362 5363 5364 5364 5365 5366 5366 5367 5368 5369 5369 5370 5371 5372 5373 5374 5375 5376 5377 5378 5379
5382 5379 5377 5374 5372 5370 5368 5366 5364 5362 5360 5359 5358 5357 5356 5355 5355 5354 5354 5354 5354 5354 5355 5355 5356 5356 5357 5357 5358 5359 5359 5360 5361 5362 5362 5363 5364 5364 5365 5366 5367 5368 5369 5369
5377 5374 5371 5369 5367 5364 5362 5360 5358 5357 5355 5354 5353 5351 5350 5349 5349 5348 5348 5347 5347 5347 5347 5348 5348 5349 5349 5350 5350 5351 5352 5352 5353 5354 5354 5355 5355 5356 5356 5357 5358 5359 5360 5360
5371 5368 5366 5363 5361 5359 5357 5355 5353 5351 5350 5349 5347 5346 5345 5344 5343 5342 5341 5341 5340 5340 5340 5340 5341 5341 5342 5342 5343 5343 5344 5344 5345 5346 5346 5347 5348 5348 5349 5349 5350 5351 5352 5352